Temperature
31 32 32 33 33 33 33 33 32 32 32 32 31 31 30 30 30 29 28 27 26 25 24 24 23 23 22 22 21 21 21 20 20 20 19 19 19 19 19 19 18 18 18 18
30 31 32 32 33 33 33 33 33 32 32 33 32 31 30 29 29 29 27 26 25 25 24 23 23 23 22 22 21 21 21 20 20 20 19 19 19 19 19 19 18 18 18 18
29 30 31 30 32 33 33 33 33 32 32 33 32 31 30 29 28 28 27 26 25 24 24 23 23 22 22 22 21 21 20 20 20 20 19 19 19 18 18 18 18 18 18 18
28 28 28 31 33 34 33 33 33 33 32 32 31 30 30 29 28 27 26 25 25 24 23 23 22 22 22 21 21 21 20 20 20 19 19 19 18 18 18 18 18 18 18 18
28 28 28 30 32 32 31 31 32 32 32 31 31 30 29 27 26 26 25 25 24 23 23 23 22 22 21 21 21 20 20 20 19 19 19 19 18 18 18 18 18 18 18 18
27 27 27 29 31 32 31 29 31 31 30 30 30 29 28 26 25 25 24 24 23 23 22 22 21 21 21 21 20 20 20 20 19 19 19 18 18 18 18 18 18 18 18 18
26 26 28 30 31 30 28 27 29 29 29 29 28 27 26 25 24 24 23 23 22 22 21 21 21 20 20 20 20 20 19 19 19 19 19 19 18 18 18 18 18 18 17 17
26 25 26 29 29 28 26 27 27 27 27 27 26 25 25 24 23 23 22 22 22 21 21 20 20 20 20 19 19 19 19 19 19 19 18 18 18 18 18 17 17 17 17 17
26 25 25 26 26 26 26 26 26 26 26 25 25 25 24 23 23 22 22 21 21 20 20 20 20 19 19 19 19 18 18 18 18 18 18 18 18 17 17 17 17 16 16 16
25 25 25 25 25 25 25 25 25 25 25 24 24 23 23 22 22 21 21 20 20 20 19 19 19 19 19 18 18 18 18 18 18 18 18 17 17 17 17 17 17 16 16 16
24 24 24 24 24 24 25 24 24 24 24 23 23 22 22 21 21 20 20 20 19 19 19 18 18 18 18 18 18 17 17 17 17 17 17 17 17 17 17 17 17 17 16 16
24 24 23 23 23 23 23 23 23 23 23 22 22 21 21 20 20 20 19 19 19 18 18 18 18 18 18 17 17 17 17 17 17 17 17 17 17 17 17 17 17 17 16 16
23 23 23 22 22 22 22 22 22 22 22 21 21 21 20 20 19 19 19 18 18 18 18 17 17 17 17 17 17 17 17 17 17 17 17 17 17 16 17 17 17 16 16 16
22 22 22 21 21 21 21 21 21 21 21 20 20 20 20 19 19 18 18 18 18 17 17 17 17 16 16 16 16 16 16 16 16 16 16 16 16 16 16 16 16 16 16 16
21 21 21 21 20 20 20 20 20 20 20 20 20 19 19 19 18 18 18 18 17 17 17 16 16 16 16 16 16 16 16 16 16 16 16 16 16 16 16 16 16 16 16 16
20 20 20 20 20 20 20 20 20 20 19 19 19 19 18 18 18 17 17 17 17 16 16 16 16 16 15 16 16 16 16 16 16 16 16 16 16 16 16 16 16 16 16 16
19 19 19 19 19 19 19 19 19 19 19 19 18 18 18 18 17 17 17 16 16 16 16 16 15 15 15 15 15 15 15 16 16 16 15 15 15 16 16 15 15 15 15 15
18 18 18 18 19 19 18 18 18 18 18 17 17 17 17 17 17 16 16 16 15 15 15 15 15 15 15 15 15 15 15 15 15 15 15 15 15 15 15 15 15 15 15 15
18 18 18 18 18 18 18 18 17 17 17 17 16 16 16 16 16 16 15 15 15 15 15 14 14 14 14 14 14 14 14 14 15 15 15 15 15 15 15 15 15 15 15 14
17 17 17 17 17 17 17 17 16 16 16 16 16 15 15 15 15 15 15 15 15 15 14 14 14 14 14 14 14 14 14 14 14 14 14 14 15 15 15 15 15 14 14 14
17 17 17 16 16 16 16 16 16 15 15 15 15 15 15 15 15 15 15 15 14 14 14 14 14 14 13 13 14 14 14 14 14 14 14 14 14 14 14 14 14 14 14 13
16 16 16 16 16 16 15 15 15 15 15 15 14 14 14 14 15 14 14 14 14 14 14 14 13 13 13 13 13 13 13 13 13 13 13 13 14 14 13 13 13 13 13 13
15 15 15 15 15 15 15 15 15 14 14 14 14 14 14 14 14 14 14 14 14 14 13 13 13 13 13 13 13 13 13 13 13 13 13 13 13 13 13 13 13 12 12 12
15 15 15 14 15 15 14 14 14 14 14 14 14 14 14 14 14 14 14 14 13 13 13 13 13 13 13 12 12 12 13 13 13 13 12 12 12 12 12 12 12 12 12 11
14 14 14 14 14 14 14 14 14 14 14 14 14 14 14 14 14 14 13 13 13 13 13 13 13 12 12 12 12 12 12 12 12 12 12 12 12 12 12 11 11 11 11 11
14 14 14 14 14 14 14 14 14 14 14 14 14 14 14 14 13 13 13 13 13 12 12 12 12 12 12 12 12 11 11 11 11 11 11 11 11 11 11 11 11 11 10 10
14 14 14 14 14 14 14 14 14 14 14 14 14 13 13 13 13 13 12 12 12 12 12 12 12 11 11 11 11 11 11 11 11 11 11 10 10 10 10 10 10 10 10 10
Wind_Speed
15 14 14 12 13 13 13 12 11 9 7 5 5 6 5 4 6 7 7 6 6 5 5 5 6 6 6 5 5 5 5 5 4 4 3 3 3 3 3 3 4 3 3 3
14 15 15 16 15 14 14 12 12 8 6 4 5 6 6 4 3 6 7 6 6 5 5 5 5 5 5 5 5 5 5 5 4 4 4 4 4 3 3 3 3 3 3 3
13 15 16 18 15 14 13 11 10 9 7 4 5 6 6 6 5 4 6 6 6 4 4 5 4 4 5 5 4 5 4 4 4 4 4 4 4 3 3 3 3 3 4 3
12 13 18 13 12 13 11 10 8 6 4 3 3 4 4 5 5 4 4 4 4 4 4 4 4 4 4 5 5 5 4 3 3 3 3 3 3 3 3 3 3 4 4 4
11 14 15 13 12 10 8 8 7 5 5 3 1 2 3 6 5 3 3 3 3 4 4 4 4 4 3 4 5 4 4 3 3 3 3 3 3 3 3 3 4 4 3 3
11 13 13 9 6 6 6 7 4 4 3 2 2 4 3 6 6 4 4 3 2 2 2 3 2 3 4 4 4 4 4 3 3 3 2 3 3 3 3 4 4 4 4 4
14 14 11 7 3 4 8 2 3 2 2 1 2 3 6 6 6 5 4 3 3 3 3 2 2 2 2 2 3 3 2 2 3 3 4 4 3 3 4 4 5 5 4 4
12 13 10 4 3 2 2 4 4 4 3 3 5 6 6 5 5 4 4 3 3 3 3 2 1 1 2 2 1 1 2 3 3 3 4 3 3 4 4 5 5 5 4 4
5 5 1 4 4 5 4 3 3 3 4 4 3 4 5 4 3 4 4 3 2 2 2 2 1 1 1 1 1 1 2 3 3 3 4 4 4 5 4 4 5 4 4 5
4 3 1 1 1 1 2 2 3 3 2 2 1 3 3 3 3 3 2 2 1 2 1 1 1 1 1 1 1 2 3 3 3 4 5 4 4 4 4 4 4 4 4 4
5 3 2 3 2 1 1 1 1 0 0 1 1 1 2 2 2 2 2 1 1 1 1 1 1 1 1 1 1 3 3 3 5 6 4 4 4 4 4 4 5 5 4 4
5 3 3 3 2 3 2 1 1 1 1 0 0 0 1 2 2 2 2 1 1 1 1 1 1 1 1 1 2 3 3 4 4 4 3 4 4 4 4 5 6 7 7 6
4 4 3 2 4 4 3 2 1 1 1 1 1 1 1 1 2 1 1 1 0 1 1 1 1 2 2 2 2 3 4 4 5 5 4 4 4 4 4 4 6 7 9 9
2 2 2 3 4 4 3 3 2 2 2 1 1 1 1 1 1 1 1 1 1 1 1 2 2 2 2 2 2 4 5 5 5 5 4 5 5 5 5 5 5 4 6 10
3 4 4 4 4 4 4 3 3 4 3 2 3 2 2 1 1 1 1 2 1 2 2 2 3 2 3 3 4 5 5 5 5 5 6 5 5 6 6 6 5 4 4 5
5 5 6 5 5 5 5 5 5 5 4 4 2 1 2 1 1 2 2 2 2 3 3 2 3 3 3 4 5 5 5 7 6 6 7 6 6 6 6 5 6 5 4 3
6 7 5 6 6 6 6 5 5 5 4 3 2 2 2 2 2 3 3 2 2 3 3 3 4 4 4 4 5 6 7 6 7 7 7 6 6 6 6 6 6 5 4 4
6 6 6 6 6 5 5 4 4 4 4 2 3 2 2 2 3 4 4 4 4 4 4 4 4 4 4 5 5 6 7 6 6 6 7 6 6 6 6 6 6 6 4 4
7 6 6 5 4 2 2 3 3 3 2 2 3 2 2 2 3 3 4 4 5 5 4 3 4 6 5 5 5 6 7 8 7 6 7 7 7 7 7 7 6 5 5 3
4 3 3 2 2 1 1 2 2 2 2 2 3 3 3 3 3 4 4 5 5 4 2 3 4 5 5 4 6 7 7 7 7 7 7 7 8 7 7 7 6 6 5 4
2 2 2 1 1 1 1 2 1 2 2 2 3 3 3 4 4 4 4 5 2 2 3 4 4 4 4 5 8 7 7 7 7 7 7 7 7 7 7 6 6 5 4 4
1 1 1 1 1 1 1 1 1 2 2 3 3 3 3 4 5 4 3 3 2 2 3 4 3 2 4 7 7 7 7 7 6 6 6 6 6 6 6 6 5 5 4 3
1 1 1 1 1 1 1 1 1 2 3 3 3 3 4 4 4 4 4 2 2 2 4 4 2 2 5 6 6 6 6 6 6 5 5 6 6 6 5 6 5 4 3 3
1 1 0 1 1 1 1 1 2 2 2 3 3 3 4 4 3 3 3 1 1 1 3 2 2 4 6 6 6 5 5 5 5 5 5 6 6 5 5 4 4 4 4 4
1 1 0 1 1 1 1 1 2 3 3 3 2 2 3 2 3 3 2 2 2 3 4 3 4 4 5 5 5 5 5 4 4 5 5 5 5 5 4 4 4 3 3 3
0 1 0 0 1 1 1 1 1 2 2 2 2 2 2 2 3 2 2 3 5 4 5 3 2 3 3 4 4 4 4 4 3 4 5 5 6 5 5 4 4 3 3 3
1 0 0 1 1 1 1 1 1 2 2 2 2 3 3 3 3 3 4 4 4 4 4 4 4 3 3 3 3 3 3 3 3 3 4 4 5 4 4 5 4 4 4 3
Wind_Direction
259 264 264 256 245 244 247 255 258 249 230 207 152 130 119 126 139 140 136 137 135 139 146 151 153 153 158 164 159 162 165 174 178 184 189 204 212 211 210 223 232 230 239 245
259 260 260 259 250 250 248 245 247 249 253 194 151 133 129 127 155 150 145 149 143 148 146 152 158 161 162 165 163 162 173 180 177 185 194 207 213 206 211 228 246 245 250 249
253 259 263 254 245 244 249 251 254 253 250 196 159 138 142 157 180 167 151 146 144 150 155 158 160 162 167 169 160 159 169 186 193 192 202 212 219 203 216 232 239 244 252 251
248 252 253 257 261 251 248 254 257 259 266 217 180 154 158 147 129 122 128 132 141 151 164 171 168 171 177 176 168 168 174 188 197 201 208 208 214 216 218 232 244 246 249 244
246 245 248 255 261 262 250 260 270 271 282 282 201 136 122 110 106 94 96 112 131 154 176 171 169 172 180 183 172 179 191 200 195 202 215 214 217 219 219 232 245 249 247 249
245 248 249 254 263 271 253 247 270 261 268 296 260 229 122 97 102 96 88 94 106 121 135 136 147 166 185 197 186 194 201 203 196 203 215 222 225 225 230 233 239 245 249 245
241 249 252 259 251 244 237 241 357 324 295 245 68 76 85 83 86 89 94 89 95 92 93 101 125 155 190 207 203 194 193 197 205 214 225 223 223 231 236 240 242 242 244 242
235 246 250 298 238 252 78 56 35 26 24 61 95 98 91 84 85 98 98 89 94 95 96 100 135 169 196 217 228 195 196 206 213 221 240 236 233 241 240 241 243 247 247 252
235 233 35 18 45 80 93 77 46 45 50 51 72 96 94 86 82 86 86 80 81 96 97 84 96 156 238 237 252 235 223 217 226 232 233 239 237 241 242 240 246 253 249 251
257 222 180 110 81 86 85 76 47 46 33 34 32 83 82 86 86 86 82 77 72 84 75 55 36 356 259 242 221 235 243 232 237 237 236 232 236 235 240 244 246 250 255 261
242 227 280 282 319 352 44 84 88 63 334 310 15 91 101 103 107 104 84 79 54 53 45 33 33 360 327 266 237 252 254 249 245 241 236 235 239 243 242 238 242 243 251 258
242 214 240 265 303 310 308 273 269 305 284 252 309 181 128 117 109 108 103 84 68 12 309 331 1 338 335 295 244 248 254 257 258 259 245 242 240 250 245 235 234 234 238 247
260 241 227 231 274 285 297 306 304 295 278 261 264 241 126 110 118 109 114 104 352 301 289 291 314 309 308 301 279 264 267 266 272 268 258 253 252 250 255 246 236 240 242 242
273 263 232 238 257 263 267 278 292 289 283 282 288 265 200 169 162 181 193 231 265 291 285 286 278 281 291 289 276 273 272 267 274 276 273 268 263 260 260 260 253 248 244 238
247 250 245 231 231 247 252 246 249 251 254 264 266 251 242 231 230 249 265 284 286 276 273 270 277 287 290 279 269 266 270 272 269 276 276 273 273 271 269 268 270 263 245 243
240 237 237 231 224 238 246 245 248 250 252 256 253 253 259 259 259 266 260 264 269 274 279 282 286 291 287 287 284 275 266 265 267 274 276 277 277 282 285 280 271 265 259 256
227 224 225 235 232 236 248 254 258 261 264 265 279 278 261 272 271 270 270 273 273 277 279 275 277 282 283 283 283 283 280 275 260 268 273 278 284 285 287 285 283 277 269 250
242 244 235 240 240 236 245 255 262 267 269 286 281 272 280 285 280 286 286 280 274 275 275 280 285 278 272 277 285 286 289 290 282 277 281 280 279 276 277 277 276 275 270 262
233 238 239 236 243 238 249 263 275 266 258 265 280 287 295 295 292 291 292 290 283 277 278 293 290 283 279 282 281 272 276 281 285 284 283 280 274 274 272 271 272 273 279 279
224 217 207 219 225 241 285 295 297 285 263 256 268 274 281 287 287 287 286 281 277 281 290 301 287 288 290 288 283 281 280 282 285 285 286 286 285 284 280 275 272 274 278 274
185 161 155 192 222 244 275 287 275 285 294 277 268 272 281 287 286 282 280 284 292 313 301 276 272 281 288 288 279 281 283 284 285 286 286 287 290 292 292 286 287 290 286 283
172 159 155 194 232 247 265 281 284 298 299 289 287 288 285 285 286 281 274 281 294 313 292 288 288 308 309 297 288 284 281 282 285 289 295 295 293 293 293 297 302 305 303 305
200 170 191 235 274 278 294 292 287 287 283 284 285 285 290 297 296 292 292 297 307 302 295 301 330 347 313 295 288 285 285 285 287 290 295 299 302 301 300 304 307 307 304 305
137 131 211 227 248 260 274 293 300 290 285 281 275 273 279 286 287 289 307 348 10 316 298 286 234 279 284 289 292 295 300 302 302 305 305 304 305 307 308 306 305 308 312 309
49 67 96 230 255 275 310 306 290 283 281 288 293 296 302 312 313 325 329 337 339 301 301 280 242 261 281 301 309 313 315 325 327 320 311 311 311 309 307 306 311 317 319 315
255 246 195 222 267 288 287 285 284 287 303 319 327 335 337 335 333 333 326 326 328 314 306 313 309 273 292 305 313 319 320 322 322 319 324 325 323 325 328 334 331 324 325 329
253 299 294 286 316 314 307 309 324 333 343 350 350 346 347 349 352 347 336 331 331 329 327 323 319 323 321 320 323 328 330 336 343 339 335 332 335 339 344 343 342 344 351 356
Height
1463 1458 1456 1458 1458 1458 1462 1464 1473 1472 1470 1467 1467 1470 1476 1479 1481 1484 1488 1491 1494 1497 1499 1501 1503 1505 1507 1508 1510 1511 1512 1513 1514 1515 1516 1516 1517 1517 1517 1516 1517 1516 1516 1516
1467 1459 1457 1459 1455 1455 1456 1457 1460 1464 1466 1460 1465 1470 1476 1479 1482 1484 1488 1491 1493 1496 1498 1499 1501 1503 1504 1506 1508 1509 1510 1511 1512 1513 1514 1514 1514 1514 1514 1514 1514 1514 1514 1513
1475 1464 1462 1467 1454 1454 1454 1453 1457 1464 1463 1460 1465 1470 1474 1478 1482 1484 1486 1489 1492 1495 1497 1498 1500 1501 1503 1504 1506 1507 1508 1509 1510 1510 1511 1512 1512 1512 1512 1512 1511 1511 1511 1511
1472 1475 1487 1461 1444 1445 1450 1451 1451 1455 1458 1460 1464 1468 1473 1477 1480 1483 1486 1488 1491 1493 1496 1497 1498 1500 1501 1503 1504 1505 1506 1507 1508 1508 1508 1509 1509 1509 1509 1509 1509 1508 1508 1508
1472 1477 1471 1457 1448 1447 1453 1456 1453 1456 1458 1461 1464 1468 1473 1478 1481 1483 1485 1488 1490 1492 1494 1496 1497 1498 1499 1501 1502 1502 1503 1504 1505 1505 1505 1506 1506 1506 1506 1506 1506 1506 1505 1505
1471 1478 1479 1461 1448 1448 1453 1463 1457 1458 1460 1463 1465 1470 1475 1478 1481 1483 1485 1487 1489 1491 1493 1493 1494 1495 1497 1498 1499 1499 1500 1501 1502 1502 1502 1502 1502 1502 1503 1503 1502 1502 1502 1502
1471 1474 1465 1451 1449 1451 1467 1468 1461 1461 1463 1465 1469 1473 1478 1479 1481 1483 1485 1487 1488 1489 1490 1491 1492 1493 1494 1495 1495 1496 1497 1498 1498 1499 1499 1499 1499 1499 1499 1499 1499 1498 1498 1498
1468 1475 1472 1453 1452 1458 1463 1463 1463 1464 1466 1468 1471 1474 1477 1480 1482 1484 1485 1487 1487 1488 1489 1490 1490 1491 1492 1492 1493 1493 1494 1494 1495 1495 1496 1496 1496 1496 1496 1495 1495 1495 1494 1494
1461 1466 1462 1459 1460 1461 1463 1464 1465 1467 1469 1471 1473 1475 1478 1480 1482 1484 1485 1486 1487 1487 1488 1488 1489 1489 1489 1490 1490 1490 1490 1490 1490 1492 1492 1493 1493 1492 1492 1492 1492 1491 1491 1490
1460 1459 1460 1461 1463 1463 1464 1466 1467 1469 1471 1473 1475 1476 1478 1480 1482 1483 1485 1486 1486 1486 1486 1487 1487 1487 1487 1487 1488 1488 1487 1487 1487 1489 1489 1489 1490 1489 1489 1488 1488 1488 1487 1487
1459 1460 1462 1463 1465 1465 1466 1467 1469 1470 1472 1474 1476 1477 1479 1480 1482 1483 1484 1485 1485 1485 1485 1485 1485 1484 1485 1485 1485 1485 1485 1485 1485 1486 1486 1486 1486 1486 1485 1484 1484 1484 1483 1483
1459 1461 1463 1464 1465 1466 1467 1468 1469 1471 1472 1474 1476 1477 1478 1479 1481 1482 1482 1483 1484 1484 1484 1484 1483 1482 1482 1482 1482 1482 1483 1483 1483 1483 1483 1483 1482 1481 1481 1481 1480 1480 1479 1478
1458 1460 1462 1464 1466 1467 1468 1469 1470 1471 1473 1474 1475 1476 1478 1479 1480 1481 1481 1482 1482 1482 1482 1482 1481 1480 1480 1480 1480 1480 1480 1480 1480 1480 1479 1479 1478 1477 1477 1476 1476 1475 1474 1474
1457 1459 1461 1463 1466 1467 1468 1469 1470 1471 1472 1473 1474 1476 1476 1477 1478 1479 1479 1480 1480 1480 1480 1479 1479 1478 1477 1477 1477 1477 1477 1477 1476 1476 1476 1475 1475 1474 1473 1472 1471 1469 1469 1469
1458 1459 1461 1462 1464 1466 1467 1469 1470 1470 1471 1472 1473 1474 1474 1475 1476 1477 1477 1478 1478 1477 1477 1477 1476 1475 1475 1474 1474 1473 1473 1473 1473 1473 1472 1471 1471 1470 1469 1468 1467 1466 1465 1464
1457 1459 1460 1461 1463 1464 1466 1467 1467 1468 1469 1470 1471 1471 1472 1473 1474 1475 1475 1475 1475 1474 1474 1473 1473 1472 1472 1471 1471 1470 1470 1469 1469 1469 1468 1467 1466 1466 1464 1464 1463 1462 1461 1460
1455 1456 1458 1460 1461 1462 1464 1464 1465 1466 1467 1468 1468 1469 1470 1470 1471 1472 1472 1472 1471 1471 1471 1470 1469 1469 1469 1468 1468 1468 1467 1466 1465 1465 1464 1463 1462 1461 1460 1459 1459 1457 1456 1456
1454 1455 1456 1458 1459 1459 1461 1462 1463 1464 1465 1466 1467 1467 1467 1467 1468 1468 1468 1468 1468 1467 1467 1466 1466 1465 1464 1464 1464 1464 1464 1463 1462 1461 1460 1459 1458 1457 1456 1455 1454 1453 1452 1451
1451 1453 1454 1456 1457 1458 1459 1460 1460 1461 1462 1463 1464 1464 1464 1465 1465 1465 1465 1464 1463 1463 1463 1462 1461 1461 1461 1460 1459 1460 1459 1459 1458 1456 1455 1454 1453 1452 1451 1450 1449 1448 1447 1446
1449 1450 1452 1454 1455 1456 1457 1457 1458 1459 1460 1460 1461 1461 1461 1461 1462 1462 1461 1461 1460 1459 1459 1458 1458 1457 1456 1456 1456 1456 1455 1454 1453 1452 1451 1450 1448 1447 1446 1445 1444 1443 1442 1441
1448 1450 1451 1452 1454 1455 1456 1456 1456 1456 1456 1457 1457 1457 1458 1458 1459 1459 1458 1457 1457 1456 1456 1455 1454 1453 1452 1452 1452 1451 1451 1450 1449 1448 1447 1445 1444 1443 1442 1441 1439 1438 1437 1437
1448 1449 1451 1453 1453 1454 1455 1455 1455 1455 1455 1455 1455 1456 1456 1456 1456 1455 1455 1455 1454 1453 1452 1452 1451 1449 1449 1448 1447 1447 1446 1445 1444 1443 1442 1441 1440 1438 1437 1436 1435 1433 1433 1432
1448 1449 1451 1452 1453 1453 1453 1453 1454 1454 1454 1453 1453 1454 1454 1454 1454 1453 1452 1452 1451 1450 1449 1448 1447 1446 1445 1444 1443 1442 1442 1441 1440 1439 1438 1437 1435 1434 1433 1432 1431 1430 1429 1427
1448 1449 1450 1451 1452 1452 1452 1452 1453 1453 1452 1452 1452 1452 1452 1452 1451 1450 1450 1448 1447 1446 1446 1445 1444 1443 1441 1441 1440 1439 1438 1437 1436 1435 1434 1433 1432 1430 1429 1428 1427 1426 1424 1423
1448 1449 1449 1450 1450 1451 1451 1451 1451 1451 1451 1451 1451 1450 1450 1449 1449 1448 1447 1446 1445 1444 1443 1442 1441 1439 1439 1438 1437 1436 1435 1433 1432 1432 1430 1429 1428 1427 1426 1424 1423 1422 1420 1419
1448 1448 1448 1449 1449 1450 1450 1450 1450 1450 1450 1449 1449 1449 1448 1447 1446 1446 1445 1444 1443 1442 1441 1440 1438 1437 1436 1435 1434 1433 1432 1430 1429 1429 1428 1427 1425 1424 1422 1421 1420 1418 1417 1416
1447 1447 1447 1448 1449 1449 1449 1449 1449 1449 1448 1448 1448 1447 1447 1446 1445 1444 1443 1442 1441 1440 1439 1438 1436 1435 1433 1432 1431 1430 1429 1428 1427 1426 1425 1424 1422 1421 1419 1418 1417 1416 1415 1414